Regional Weather Roundup
Issued by NWS

Home | Current Version | Previous Version | Graphics & Text | Print | Product List | Glossary Off
Versions: 1 2 3 4 5 6 7 8 9 10 11 12 13 14 15 16 17 18 19 20 21 22 23 24 25 26 27 28 29 30 31 32 33 34 35 36 37 38 39 40 41 42 43 44 45 46 47 48 49 50

000
ASUS43 KMKX 250700
RWRWI

WISCONSIN REGIONAL WEATHER ROUNDUP
NATIONAL WEATHER SERVICE MILWAUKEE/SULLIVAN WI
200 AM CDT WED MAY 25 2016

NOTE: "FAIR" INDICATES FEW OR NO CLOUDS BELOW 12,000 FEET WITH NO
SIGNIFICANT WEATHER AND/OR OBSTRUCTIONS TO VISIBILITY.

WIZ001-002-006>008-014>016-023>028-250800-
NORTHWEST WISCONSIN

CITY           SKY/WX    TMP DP  RH WIND       PRES   REMARKS
SUPERIOR ARPT  SNOW      46  46 100 NE8       30.03S VSB 1/2
ASHLAND        FOG       48  48 100 E6        30.02F VSB 1/4
HAYWARD        CLEAR     58  55  90 VRB6      29.99R
SIREN          CLOUDY    58  57  95 NE3       29.96F
CUMBERLAND     CLOUDY    59  57  94 E5        29.98R
RICE LAKE      CLOUDY    58  56  91 CALM      29.99R
CHETEK         NOT AVBL
LADYSMITH      CLEAR     60  58  91 E5        30.00S
EAU CLAIRE     NOT AVBL
MENOMONIE      CLOUDY    59  55  88 CALM      29.96R
NEW RICHMOND   CLEAR     63  53  70 CALM      29.95S
OSCEOLA        CLOUDY    61  60  99 CALM      29.96S
$$

WIZ003>005-009-010-017-018-250800-
NORTH CENTRAL WISCONSIN

CITY           SKY/WX    TMP DP  RH WIND       PRES   REMARKS
MANITOWISH WTR NOT AVBL
ARBOR VITAE    FOG       57  56  95 CALM      30.00F VSB 1/2
WOODRUFF       FOG       57  56  95 CALM      30.00F VSB 1/2
RHINELANDER    FOG       53  52  96 CALM      30.01S VSB 1/4
EAGLE RIVER    FOG       56  56 100 CALM      30.01S VSB<1/4
LAND O LAKES   FOG       59  59  99 N3        30.02S VSB 3/4
PHILLIPS       FOG       53  53 100 CALM      30.00R VSB 1/4
TOMAHAWK         N/A     50  49  95 CALM      30.01S FOG
MEDFORD        CLEAR     57  57 100 E5        29.99S
MERRILL        CLEAR     53  53 100 CALM      30.00S FOG
$$

WIZ029-030-035-036-043>047-250800-
CENTRAL WISCONSIN

CITY           SKY/WX    TMP DP  RH WIND       PRES   REMARKS
WAUSAU         CLEAR     62  57  83 CALM      29.97S
MOSINEE        CLEAR     59  55  88 NE7       29.99S
MARSHFIELD     CLEAR     64  56  75 NE7       29.97R
STEVENS POINT  CLEAR     55  53  91 CALM      29.98S
WAUPACA        CLEAR     60  58  95 CALM      29.96S
WAUTOMA        NOT AVBL
WISC RAPIDS    CLEAR     57  54  89 CALM      29.98R
CAMP DOUGLAS   FOG       50  50 100 N2        29.96S VSB 1/4
$$

WIZ011>013-019>022-031-037>040-048>050-250800-
NORTHEAST WISCONSIN

CITY           SKY/WX    TMP DP  RH WIND       PRES   REMARKS
ANTIGO         CLEAR     54  54  99 N8        30.00S
SHAWANO        CLEAR     61  58  88 CALM      29.97R
OCONTO         PTCLDY    54  54 100 CALM      29.97R
STURGEON BAY   NOT AVBL
GREEN BAY      CLEAR     61  58  90 CALM      29.97R
MANITOWOC      NOT AVBL
APPLETON       CLEAR     63  54  72 W6        29.95R
CLINTONVILLE   CLEAR     57  54  88 CALM      29.97R
OSHKOSH        CLEAR     59  55  87 CALM      29.96R
$$

WIZ032>034-041-042-053>061-250800-
SOUTHWEST WISCONSIN

CITY           SKY/WX    TMP DP  RH WIND       PRES   REMARKS
LA CROSSE      CLEAR     64  59  83 E3        29.95R
SPARTA         CLEAR     52  52  99 CALM      29.96S
VIROQUA        CLEAR     62  56  81 SE6       29.96S
BOSCOBEL       FOG       58  57  97 CALM      29.96R VSB 3/4
PRAIRIE DU CHI CLOUDY    62  60  91 E3        29.95R
PLATTEVILLE    CLOUDY    68  61  77 SE5       29.96R
$$

WIZ056-057-062-063-064-067-068-250800-
SOUTH CENTRAL WISCONSIN

CITY           SKY/WX    TMP DP  RH WIND       PRES   REMARKS
REEDSBURG      CLEAR     58  58 100 CALM      29.96R
BARABOO/DELLS  CLEAR     58  55  89 CALM      29.96S
LONE ROCK      NOT AVBL
MINERAL POINT  PTCLDY    70  59  68 SE5       29.96F
MADISON        CLEAR     62  60  93 N3        29.96R
MIDDLETON      CLEAR     62  59  89 CALM      29.97S
WATERTOWN      PTCLDY    62  62 100 CALM      29.96R
MONROE         CLEAR     68  59  73 E7        29.96R
JANESVILLE     CLEAR     64  63  94 CALM      29.96R
$$

WIZ051-052-058>065-066-070>072-250800-
SOUTHEAST WISCONSIN

CITY           SKY/WX    TMP DP  RH WIND       PRES   REMARKS
MILWAUKEE      PTCLDY    63  52  67 CALM      29.97R
WAUKESHA       PTCLDY    61  61 100 CALM      29.98R FOG
MILWAUKEE/TIMM MOCLDY    63  59  88 CALM      29.97S FOG
RACINE         CLEAR     61  53  75 SW7       29.99R
BURLINGTON     PTCLDY    65  58  79 CALM      29.97R
KENOSHA        CLEAR     66  56  70 S9        29.98R
FOND DU LAC    CLEAR     58  56  93 CALM      29.97R
SHEBOYGAN      CLEAR     56  54  93 CALM      29.96R FOG
WEST BEND      CLEAR     59  57  94 CALM      29.97R
JUNEAU         CLEAR     64  60  85 CALM      29.98R
$$

LSZ147-162-250800-
LAKE SUPERIOR

STATION/POSITION TIME  TEMP    WIND        PRES    WAVE
                       AIR SEA DIR/SP/G            HT/PER
                 (UTC) (F)     (DEG/KT/KT) (MB)    (FT/S)
W MID LAKE BUOY  0550   42 38   70/  8/  8 1017.4F   2/ 4
DEVILS ISLAND    0600   46      80/ 10/ 11 1017.5F
SAXON HARBOR     0600   45     340/  3/  6 1016.6
$$

LMZ867-665-643>646-250800-
LAKE MICHIGAN

STATION/POSITION TIME  TEMP    WIND        PRES    WAVE
                       AIR SEA DIR/SP/G            HT/PER
                 (UTC) (F)     (DEG/KT/KT) (MB)    (FT/S)
CHAMBERS ISLAND  0600   54      30/  7/  9 1015.2R
N MID LAKE BUOY  0550   47 44   80/  6/  6 1015.0R   2/ 4
NORTHPORT PIER   0600   51      CALM  /  3 1015.2R
SISTER BAY       0619   54        CALM       N/A
ALGOMA LAKESHORE 0617           90/  2/  7   N/A
KEWAUNEE LAKESHO 0600   61     310/  6/  6 1013.5R
SHEBOYGAN LAKESH 0600   66     250/  5/  5 1014.4R
PORT WASHINGTON  0600   63     280/  2/  4 1015.2
S MID LAKE BUOY  0550   59 49  160/  8/  8 1014.3F   0
KENOSHA   LAKESH 0600   62     160/  4/  7 1014.2S
$$

TC  - TEMPERATURE IN CELSIUS
VSB - VISIBILITY IN STATUTE MILES
WCI - WIND CHILL INDEX
HX  - HEAT INDEX




USA.gov is the U.S. government's official web portal to all federal, state and local government web resources and services.